DW2489 Weather Reports


Display with metric or nautical units.
time (UTC)temp
F
wind
direction
speed
MPH
gust
MPH
rain 1hr
in
rain 24hr
in
rain mn
in
humidity
%
barometer
mb
20260905055004 64 252 1.0 3.0 0.00 0.00 0.00 1011.3
20260905054505 64 252 0.0 0.0 0.00 0.00 0.00 1011.2
20260905054004 64 252 0.0 0.0 0.00 0.00 0.00 1011.3
20260905053504 64 252 0.0 3.0 0.00 0.00 0.00 1011.2
20260905053004 64 252 0.0 3.0 0.00 0.00 0.00 1011.3
20260905052504 65 252 0.0 0.0 0.00 0.00 0.00 1011.4
20260905052004 65 252 0.0 0.0 0.00 0.00 0.00 1011.3
20260905051505 65 252 0.0 0.0 0.00 0.00 0.00 1011.5
20260905051005 65 252 0.0 0.0 0.00 0.00 0.00 1011.6
20260905050534 66 252 0.0 0.0 0.00 0.00 0.00 1011.5
20260905050005 66 252 0.0 0.0 0.00 0.00 0.00 1011.7
20260905045504 66 252 0.0 0.0 0.00 0.00 0.00 1011.7
20260905045004 66 252 0.0 0.0 0.00 0.00 0.00 1011.6
20260905044006 66 252 0.0 0.0 0.00 0.00 0.00 1011.6
20260905043504 67 252 0.0 5.0 0.00 0.00 0.00 1011.6
20260905043019 67 252 0.0 5.0 0.00 0.00 0.00 1011.7
20260905042505 67 252 3.0 5.0 0.00 0.00 0.00 1011.7
20260905042006 66 252 1.0 5.0 0.00 0.00 0.00 1011.7
20260905041504 67 252 0.0 5.0 0.00 0.00 0.00 1011.6
20260905041004 67 252 0.0 5.0 0.00 0.00 0.00 1011.7
20260905040549 67 252 0.0 6.0 0.00 0.00 0.00 1011.8
20260905040049 67 252 0.0 6.0 0.00 0.00 0.00 1011.7
20260905035519 67 252 0.0 5.0 0.00 0.00 0.00 1011.7
20260905035004 67 252 2.0 6.0 0.00 0.00 0.00 1011.8
20260905034505 66 252 2.0 6.0 0.00 0.00 0.00 1011.8
20260905034004 66 252 2.0 5.0 0.00 0.00 0.00 1011.7
20260905033505 66 252 1.0 6.0 0.00 0.00 0.00 1011.5
20260905033004 66 252 3.0 6.0 0.00 0.00 0.00 1011.6
20260905032504 66 252 0.0 0.0 0.00 0.00 0.00 1011.5
20260905032004 66 252 0.0 0.0 0.00 0.00 0.00 1011.4
20260905031504 66 252 0.0 0.0 0.00 0.00 0.00 1011.5
20260905031034 65 252 0.0 2.0 0.00 0.00 0.00 1011.6
20260905030504 65 252 0.0 2.0 0.00 0.00 0.00 1011.5
20260905030004 65 252 0.0 0.0 0.00 0.00 0.00 1011.4
20260905025504 65 252 0.0 3.0 0.00 0.00 0.00 1011.4
20260905025004 65 252 0.0 3.0 0.00 0.00 0.00 1011.4
20260905024504 65 250 1.0 3.0 0.00 0.00 0.00 1011.4
20260905024004 66 247 0.0 2.0 0.00 0.00 0.00 1011.5
20260905023505 66 243 0.0 2.0 0.00 0.00 0.00 1011.6
20260905023004 66 240 0.0 2.0 0.00 0.00 0.00 1011.7
20260905022504 66 232 0.0 0.0 0.00 0.00 0.00 1011.7
20260905022004 66 228 0.0 0.0 0.00 0.00 0.00 1011.7
20260905021505 66 226 0.0 0.0 0.00 0.00 0.00 1011.7
20260905021007 66 219 0.0 2.0 0.00 0.00 0.00 1012.0
20260905020519 67 211 0.0 2.0 0.00 0.00 0.00 1011.9
20260905020004 67 201 0.0 0.0 0.00 0.00 0.00 1011.8
20260905015504 67 201 0.0 0.0 0.00 0.00 0.00 1011.9
20260905015005 67 201 0.0 0.0 0.00 0.00 0.00 1011.9
20260905014504 67 201 0.0 0.0 0.00 0.00 0.00 1011.9
20260905014005 68 201 0.0 0.0 0.00 0.00 0.00 1011.8
20260905013519 68 201 0.0 0.0 0.00 0.00 0.00 1011.9
20260905013004 68 201 0.0 0.0 0.00 0.00 0.00 1011.9
20260905012504 68 201 0.0 0.0 0.00 0.00 0.00 1011.9
20260905012049 69 201 0.0 0.0 0.00 0.00 0.00 1011.7
20260905011504 69 201 0.0 0.0 0.00 0.00 0.00 1011.7
20260905011034 69 201 0.0 0.0 0.00 0.00 0.00 1011.8
20260905010504 69 201 0.0 0.0 0.00 0.00 0.00 1011.8
20260905010004 70 201 0.0 0.0 0.00 0.00 0.00 1011.9
20260905005504 70 201 0.0 0.0 0.00 0.00 0.00 1011.9
20260905005004 70 201 0.0 0.0 0.00 0.00 0.00 1011.7
20260905004519 70 201 0.0 0.0 0.00 0.00 0.00 1011.7
20260905004004 71 201 0.0 0.0 0.00 0.00 0.00 1011.6
20260905003505 71 201 0.0 0.0 0.00 0.00 0.00 1011.4
20260905003004 71 201 0.0 0.0 0.00 0.00 0.00 1011.5
20260905002550 71 201 0.0 3.0 0.00 0.00 0.00 1011.4
20260905002004 72 201 0.0 3.0 0.00 0.00 0.00 1011.2
20260905001505 72 201 0.0 5.0 0.00 0.00 0.00 1011.3
20260905001005 72 201 0.0 5.0 0.00 0.00 0.00 1011.2
20260905000504 73 252 0.0 2.0 0.00 0.00 0.00 1011.3
20260905000005 73 252 0.0 3.0 0.00 0.00 0.00 1011.1
20260904235504 73 253 0.0 3.0 0.00 0.00 0.00 1010.9
20260904235005 74 253 0.0 2.0 0.00 0.00 0.00 1010.9
20260904234505 74 252 0.0 2.0 0.00 0.00 0.00 1011.0
20260904234019 74 251 0.0 2.0 0.00 0.00 0.00 1011.0
20260904233549 75 250 0.0 2.0 0.00 0.00 0.00 1010.9
20260904233004 75 250 0.0 2.0 0.00 0.00 0.00 1011.0
20260904232504 75 250 0.0 5.0 0.00 0.00 0.00 1010.9
20260904232004 76 250 0.0 5.0 0.00 0.00 0.00 1010.7
20260904231505 76 258 0.0 0.0 0.00 0.00 0.00 1010.7
20260904231004 76 259 0.0 0.0 0.00 0.00 0.00 1010.7
20260904230534 77 258 0.0 0.0 0.00 0.00 0.00 1010.8
20260904230004 77 258 0.0 2.0 0.00 0.00 0.00 1010.7
20260904225504 77 258 0.0 2.0 0.00 0.00 0.00 1010.7
20260904225004 77 259 0.0 0.0 0.00 0.00 0.00 1010.6
20260904224504 78 258 0.0 2.0 0.00 0.00 0.00 1010.7
20260904224004 78 258 0.0 2.0 0.00 0.00 0.00 1010.5
20260904223505 78 255 0.0 2.0 0.00 0.00 0.00 1010.5
20260904223005 78 253 0.0 2.0 0.00 0.00 0.00 1010.5
20260904222504 78 246 0.0 0.0 0.00 0.00 0.00 1010.6
20260904222004 79 246 0.0 3.0 0.00 0.00 0.00 1010.5
20260904221504 79 245 0.0 3.0 0.00 0.00 0.00 1010.5
20260904221004 79 243 0.0 2.0 0.00 0.00 0.00 1010.5
20260904220504 79 242 0.0 0.0 0.00 0.00 0.00 1010.4
20260904220019 79 243 0.0 6.0 0.00 0.00 0.00 1010.5
20260904215505 79 243 0.0 6.0 0.00 0.00 0.00 1010.4
20260904215004 79 271 1.0 5.0 0.00 0.00 0.00 1010.4
20260904214505 79 271 1.0 5.0 0.00 0.00 0.00 1010.3
20260904214004 79 355 0.0 3.0 0.00 0.00 0.00 1010.2
20260904213504 79 248 0.0 0.0 0.00 0.00 0.00 1010.4
20260904213004 79 248 0.0 0.0 0.00 0.00 0.00 1010.3
20260904212504 79 248 0.0 6.0 0.00 0.00 0.00 1010.3
20260904212004 79 248 0.0 8.0 0.00 0.00 0.00 1010.3
20260904211504 79 242 3.0 8.0 0.00 0.00 0.00 1010.2
20260904211004 79 241 0.0 8.0 0.00 0.00 0.00 1010.3
20260904210504 79 260 1.0 6.0 0.00 0.00 0.00 1010.4
20260904210005 79 238 1.0 9.0 0.00 0.00 0.00 1010.4
20260904205504 79 238 3.0 9.0 0.00 0.00 0.00 1010.4
20260904205004 80 255 0.0 9.0 0.00 0.00 0.00 1010.4
20260904204504 80 248 3.0 6.0 0.00 0.00 0.00 1010.5
20260904204004 80 243 0.0 6.0 0.00 0.00 0.00 1010.4
20260904203504 80 238 0.0 6.0 0.00 0.00 0.00 1010.3
20260904203004 81 38 0.0 5.0 0.00 0.00 0.00 1010.5
20260904202504 81 250 0.0 5.0 0.00 0.00 0.00 1010.5
20260904202004 81 244 0.0 8.0 0.00 0.00 0.00 1010.5
20260904201504 82 235 0.0 8.0 0.00 0.00 0.00 1010.5
20260904201018 82 44 2.0 8.0 0.00 0.00 0.00 1010.5
20260904200504 82 262 3.0 8.0 0.00 0.00 0.00 1010.6
20260904200004 82 254 0.0 6.0 0.00 0.00 0.00 1010.5
20260904195504 83 15 2.0 8.0 0.00 0.00 0.00 1010.6
20260904195004 83 255 2.0 8.0 0.00 0.00 0.00 1010.5
20260904194504 83 0 2.0 6.0 0.00 0.00 0.00 1010.6
20260904194005 83 0 0.0 6.0 0.00 0.00 0.00 1010.5
20260904193505 83 351 2.0 6.0 0.00 0.00 0.00 1010.4
20260904193004 83 268 0.0 9.0 0.00 0.00 0.00 1010.4
20260904192505 82 21 2.0 9.0 0.00 0.00 0.00 1010.3
20260904192004 82 8 0.0 8.0 0.00 0.00 0.00 1010.4
20260904191505 82 21 2.0 16.0 0.00 0.00 0.00 1010.5
20260904191003 82 268 2.0 16.0 0.00 0.00 0.00 1010.5
20260904190548 82 282 5.0 11.0 0.00 0.00 0.00 1010.4
20260904190004 82 241 0.0 11.0 0.00 0.00 0.00 1010.3
20260904185503 81 30 3.0 14.0 0.00 0.00 0.00 1010.5
20260904185004 81 266 5.0 14.0 0.00 0.00 0.00 1010.6
20260904184534 81 274 3.0 11.0 0.00 0.00 0.00 1010.6
20260904184004 81 251 3.0 13.0 0.00 0.00 0.00 1010.8
20260904183533 81 273 1.0 13.0 0.00 0.00 0.00 1010.8
20260904183005 81 259 6.0 16.0 0.00 0.00 0.00 1010.8
20260904182504 81 272 9.0 16.0 0.00 0.00 0.00 1010.9
20260904182003 81 245 6.0 9.0 0.00 0.00 0.00 1011.0
20260904181503 81 223 0.0 11.0 0.00 0.00 0.00 1011.0
20260904181004 81 222 0.0 14.0 0.00 0.00 0.00 1011.0
20260904180505 81 254 7.0 14.0 0.00 0.00 0.00 1010.9
20260904180003 81 7 0.0 9.0 0.00 0.00 0.00 1010.9
20260904175505 81 16 3.0 8.0 0.00 0.00 0.00 1011.1
20260904175018 81 28 2.0 8.0 0.00 0.00 0.00 1011.1
20260904174503 81 36 1.0 11.0 0.00 0.00 0.00 1011.1
20260904174003 81 269 3.0 11.0 0.00 0.00 0.00 1011.3
20260904173534 81 217 0.0 9.0 0.00 0.00 0.00 1011.2
20260904173003 81 358 2.0 11.0 0.00 0.00 0.00 1011.2
20260904172503 81 331 1.0 11.0 0.00 0.00 0.00 1011.3
20260904172004 80 12 1.0 13.0 0.00 0.00 0.00 1011.2
20260904171503 80 232 2.0 16.0 0.00 0.00 0.00 1011.3
20260904171003 80 6 5.0 16.0 0.00 0.00 0.00 1011.2
20260904170503 80 63 1.0 5.0 0.00 0.00 0.00 1011.1
20260904170003 80 42 0.0 8.0 0.00 0.00 0.00 1011.2
20260904165503 80 43 1.0 8.0 0.00 0.00 0.00 1011.2
20260904165048 80 350 3.0 8.0 0.00 0.00 0.00 1011.2
20260904164503 80 255 0.0 8.0 0.00 0.00 0.00 1011.2
20260904164003 80 245 2.0 8.0 0.00 0.00 0.00 1011.2
20260904163504 80 0 2.0 8.0 0.00 0.00 0.00 1011.5
20260904163003 81 39 3.0 8.0 0.00 0.00 0.00 1011.6
20260904162518 81 344 0.0 6.0 0.00 0.00 0.00 1011.7
20260904162003 81 14 2.0 6.0 0.00 0.00 0.00 1011.6
20260904161504 81 254 3.0 8.0 0.00 0.00 0.00 1011.8
20260904161003 80 42 2.0 8.0 0.00 0.00 0.00 1011.8
20260904160503 80 33 2.0 9.0 0.00 0.00 0.00 1011.6
20260904160004 80 33 2.0 9.0 0.00 0.00 0.00 1011.9
20260904155503 80 230 5.0 9.0 0.00 0.00 0.00 1012.0
20260904155003 80 243 6.0 11.0 0.00 0.00 0.00 1012.0
20260904154503 81 234 6.0 13.0 0.00 0.00 0.00 1012.2
20260904154003 81 248 2.0 14.0 0.00 0.00 0.00 1012.1
20260904153503 80 246 1.0 14.0 0.00 0.00 0.00 1012.0
20260904153048 79 281 0.0 16.0 0.00 0.00 0.00 1012.0
20260904152519 80 282 1.0 16.0 0.00 0.00 0.00 1012.1
20260904152004 81 256 7.0 9.0 0.00 0.00 0.00 1012.3
20260904151504 81 269 1.0 6.0 0.00 0.00 0.00 1012.3
20260904151003 81 277 2.0 6.0 0.00 0.00 0.00 1012.2
20260904150518 81 259 3.0 8.0 0.00 0.00 0.00 1012.2
20260904150033 80 46 0.0 8.0 0.00 0.00 0.00 1012.2
20260904145534 80 233 1.0 8.0 0.00 0.00 0.00 1012.3
20260904145033 80 1 0.0 6.0 0.00 0.00 0.00 1012.2
20260904144533 80 268 3.0 9.0 0.00 0.00 0.00 1012.3
20260904144003 79 259 0.0 9.0 0.00 0.00 0.00 1012.2
20260904143533 79 245 3.0 9.0 0.00 0.00 0.00 1012.2
20260904143103 79 258 2.0 8.0 0.00 0.00 0.00 1012.3
20260904142534 79 259 2.0 9.0 0.00 0.00 0.00 1012.2
20260904142049 79 263 3.0 9.0 0.00 0.00 0.00 1012.1
20260904141533 79 261 2.0 9.0 0.00 0.00 0.00 1012.2
20260904141118 79 327 3.0 6.0 0.00 0.00 0.00 1012.1
20260904140534 78 257 0.0 8.0 0.00 0.00 0.00 1012.1
20260904140034 78 271 1.0 8.0 0.00 0.00 0.00 1012.2
20260904135503 78 259 6.0 8.0 0.00 0.00 0.00 1012.1
20260904135048 77 259 2.0 6.0 0.00 0.00 0.00 1012.0
20260904134534 77 32 0.0 6.0 0.00 0.00 0.00 1012.2
20260904134003 76 247 3.0 6.0 0.00 0.00 0.00 1012.1
20260904133603 76 270 3.0 6.0 0.00 0.00 0.00 1012.3
20260904133049 76 275 0.0 5.0 0.00 0.00 0.00 1012.1
20260904132534 75 261 2.0 6.0 0.00 0.00 0.00 1012.2
20260904132033 74 15 0.0 6.0 0.00 0.00 0.00 1012.3
20260904131534 74 263 0.0 6.0 0.00 0.00 0.00 1012.3
20260904131003 73 258 2.0 6.0 0.00 0.00 0.00 1012.4
20260904130603 71 262 0.0 5.0 0.00 0.00 0.00 1012.3
20260904130033 70 262 1.0 6.0 0.00 0.00 0.00 1012.3
20260904125534 70 262 0.0 6.0 0.00 0.00 0.00 1012.3
20260904125033 69 302 0.0 5.0 0.00 0.00 0.00 1012.4
20260904124533 68 302 1.0 5.0 0.00 0.00 0.00 1012.3
20260904124003 67 302 1.0 5.0 0.00 0.00 0.00 1012.2
20260904123534 67 302 0.0 6.0 0.00 0.00 0.00 1012.3
20260904123034 66 302 3.0 6.0 0.00 0.00 0.00 1012.3
20260904122534 65 302 2.0 5.0 0.00 0.00 0.00 1012.4
20260904122034 64 302 2.0 3.0 0.00 0.00 0.00 1012.4
20260904121618 64 302 0.0 0.0 0.00 0.00 0.00 1012.4
20260904121033 64 302 0.0 0.0 0.00 0.00 0.00 1012.4
20260904120534 63 302 0.0 0.0 0.00 0.00 0.00 1012.4
20260904120033 63 302 0.0 0.0 0.00 0.00 0.00 1012.4
20260904115503 63 302 0.0 2.0 0.00 0.00 0.00 1012.3
20260904115033 62 302 0.0 2.0 0.00 0.00 0.00 1012.4
20260904114533 62 302 0.0 0.0 0.00 0.00 0.00 1012.3
20260904114003 61 302 0.0 0.0 0.00 0.00 0.00 1012.2
20260904113533 61 302 0.0 0.0 0.00 0.00 0.00 1012.1
20260904113033 60 302 0.0 0.0 0.00 0.00 0.00 1012.1
20260904112533 60 302 0.0 0.0 0.00 0.00 0.00 1012.0
20260904112003 60 302 0.0 0.0 0.00 0.00 0.00 1012.0
20260904111536 60 302 0.0 0.0 0.00 0.00 0.00 1012.0
20260904111033 60 302 0.0 0.0 0.00 0.00 0.00 1011.8
20260904110503 59 302 0.0 0.0 0.00 0.00 0.00 1011.8
20260904110118 59 302 0.0 0.0 0.00 0.00 0.00 1011.8
20260904105503 59 302 0.0 0.0 0.00 0.00 0.00 1011.9
20260904105003 59 302 0.0 0.0 0.00 0.00 0.00 1011.8
20260904104533 59 302 0.0 0.0 0.00 0.00 0.00 1011.6
20260904104033 59 302 0.0 0.0 0.00 0.00 0.00 1011.7
20260904103534 59 302 0.0 0.0 0.00 0.00 0.00 1011.7
20260904103034 59 302 0.0 0.0 0.00 0.00 0.00 1011.6
20260904102533 59 302 0.0 0.0 0.00 0.00 0.00 1011.5
20260904102035 59 302 0.0 3.0 0.00 0.00 0.00 1011.5
20260904101534 59 302 0.0 3.0 0.00 0.00 0.00 1011.4
20260904101034 59 302 1.0 3.0 0.00 0.00 0.00 1011.3
20260904100533 59 302 0.0 0.0 0.00 0.00 0.00 1011.4
20260904100033 60 302 0.0 0.0 0.00 0.00 0.00 1011.2
20260904095533 60 302 0.0 0.0 0.00 0.00 0.00 1011.3
20260904095033 60 302 0.0 0.0 0.00 0.00 0.00 1011.2
20260904094549 60 302 0.0 0.0 0.00 0.00 0.00 1011.2
20260904094033 60 302 0.0 0.0 0.00 0.00 0.00 1011.2
20260904093548 60 302 0.0 0.0 0.00 0.00 0.00 1011.1
20260904093133 60 302 0.0 0.0 0.00 0.00 0.00 1011.1
20260904092532 60 302 0.0 0.0 0.00 0.00 0.00 1011.1
20260904092033 60 302 0.0 0.0 0.00 0.00 0.00 1011.0
20260904091533 60 302 0.0 0.0 0.00 0.00 0.00 1011.0
20260904091033 61 302 0.0 0.0 0.00 0.00 0.00 1010.9
20260904090534 61 302 0.0 0.0 0.00 0.00 0.00 1010.8
20260904090034 61 302 0.0 3.0 0.00 0.00 0.00 1010.7
20260904085533 61 302 0.0 3.0 0.00 0.00 0.00 1010.8
20260904085032 61 302 2.0 3.0 0.00 0.00 0.00 1011.0
20260904084532 61 302 0.0 3.0 0.00 0.00 0.00 1010.9
20260904084033 61 302 0.0 5.0 0.00 0.00 0.00 1010.8
20260904083534 61 302 2.0 5.0 0.00 0.00 0.00 1010.7
20260904083033 61 302 2.0 3.0 0.00 0.00 0.00 1010.7
20260904082618 61 302 0.0 0.0 0.00 0.00 0.00 1010.6
20260904082048 61 302 0.0 0.0 0.00 0.00 0.00 1010.6
20260904081550 61 302 0.0 0.0 0.00 0.00 0.00 1010.7
20260904081032 61 302 0.0 0.0 0.00 0.00 0.00 1010.7
20260904080534 61 302 0.0 0.0 0.00 0.00 0.00 1010.8
20260904080034 61 302 0.0 0.0 0.00 0.00 0.00 1010.9
20260904075533 61 302 0.0 2.0 0.00 0.00 0.00 1010.8
20260904075033 61 302 0.0 2.0 0.00 0.00 0.00 1010.9
20260904074533 61 302 0.0 0.0 0.00 0.00 0.00 1010.9
20260904074033 61 302 0.0 0.0 0.00 0.00 0.00 1010.9
20260904073533 62 302 0.0 0.0 0.00 0.00 0.00 1010.9
20260904073033 62 302 0.0 0.0 0.00 0.00 0.00 1010.8
20260904072618 62 302 0.0 0.0 0.00 0.00 0.00 1010.9
20260904072033 62 302 0.0 0.0 0.00 0.00 0.00 1010.9
20260904071534 62 302 0.0 0.0 0.00 0.00 0.00 1011.0
20260904071048 62 302 0.0 0.0 0.00 0.00 0.00 1011.0
20260904070533 62 302 0.0 0.0 0.00 0.00 0.00 1011.2
20260904070033 62 302 0.0 0.0 0.00 0.00 0.00 1011.2
20260904065534 62 302 0.0 0.0 0.00 0.00 0.00 1011.1
20260904065048 62 302 0.0 0.0 0.00 0.00 0.00 1011.1
20260904064532 62 302 0.0 0.0 0.00 0.00 0.00 1011.2
20260904064033 63 302 0.0 0.0 0.00 0.00 0.00 1011.2
20260904063532 63 302 0.0 0.0 0.00 0.00 0.00 1011.2
20260904063033 63 302 0.0 0.0 0.00 0.00 0.00 1011.4
20260904062533 63 302 0.0 0.0 0.00 0.00 0.00 1011.2
20260904062033 63 302 0.0 0.0 0.00 0.00 0.00 1011.2
20260904061603 63 302 0.0 0.0 0.00 0.00 0.00 1011.2
20260904061032 63 302 0.0 0.0 0.00 0.00 0.00 1011.2
20260904060533 63 302 0.0 0.0 0.00 0.00 0.00 1011.3
20260904055533 64 302 0.0 0.0 0.00 0.00 0.00 1011.4